Location: Arroyo de San Miguel
(40.9167°N, 4.6667°W)
Time: 15:25:47
(UTC+00:00)

NOSS 3-1 (A) - Pass Details

Date: 19 May 2025
Orbit: 667 x 1541 km, 63.4° (Epoch: 14 June)

Event Time Altitude Azimuth Distance (km) Brightness Sun altitude
Exits shadow 20:49:58 16° 110° (ESE) 1,800 4.4 -12.7°
Maximum altitude 20:50:10 16° 107° (ESE) 1,803 4.4 -12.8°
Drops below altitude 10° 20:53:21 10° 69° (ENE) 2,311 5.2 -13.2°
Sets 20:56:46 0° 50° (NE) 3,385 6.3 -13.7°
